{"data":{"norad_id":28899,"epoch":"2026-09-19T17:39:09.897408Z","epoch_age_seconds":80347,"freshness":"FRESH","line1":"1 28899U 05044A   26262.73553122 -.00000262  00000+0  00000+0 0  9994","line2":"2 28899   5.2178  43.7194 0002398 136.6024 226.6286  1.00272555 76476","mean_motion":1.00272555,"eccentricity":0.0002398,"inclination_deg":5.2178,"raan_deg":43.7194,"arg_perigee_deg":136.6024,"mean_anomaly_deg":226.6286,"bstar":0,"rev_number":7647,"period_min":1436.0858761403,"perigee_km":35776.268052659,"apogee_km":35796.490154582,"semimajor_km":42164.51610362,"source":"CELESTRAK","updated_at":"2026-09-20T09:00:46.832885Z"}}